Flag for Argentina Weather past 2 weeks in Tucumán, Tucumán, Argentina

Now
72 °F

Overcast.


Feels Like: 75 °F
Forecast: N/A
Wind: 8 mph from South

Location: Tucuman Aerodrome

Current Time: Aug 3, 2015 at 7:33:24 PM

Latest Report: Aug 3, 2015 at 6:00 PM


Visibility: 3 mi

Pressure: 29.95 "Hg

Humidity: 65%

Dew point: 59 °F

Location of TucumánLocation

Historic Weather in Tucumán — Graph

°F

Tucumán temperature yesterday

Maximum temperature yesterday: 84 °F (at 4:00 PM)
Minimum temperature yesterday: 54 °F (at 2:00 AM)
Average temperature yesterday: 67 °F

Past Weeks' High & Low Weather Summary

 TemperatureHumidityPressure
High90 °F (Jul 30, 2:00 AM)94% (Jul 27, 4:00 AM)30.42 "Hg (Jul 27, 4:00 AM)
Low41 °F (Jul 21, 4:00 AM)31% (Jul 24, 3:00 PM)29.68 "Hg (Aug 2, 3:00 PM)
Average60 °F68%30.01 "Hg
* Reported Jul 19 6:00 PM — Aug 3 6:00 PM, Tucumán, Weather by CustomWeather, © 2015

Note: Actual official high and low records may vary slightly from our data, if they occured in-between our weather recording intervals... More about our weather records

Advertising

Tucumán weather history for previous 24 hours

 ConditionsComfort  
Time TempWeatherWind HumidityBarometerVisibility
6:00 PM
Mon, Aug 3
72 °FOvercast.8 mph65%29.95 "Hg3 mi
5:00 PM73 °FPartly sunny.12 mph61%29.92 "Hg2 mi
4:00 PM75 °FBroken clouds.9 mph57%29.92 "Hg3 mi
3:00 PM75 °FClear.9 mph61%29.95 "Hg4 mi
2:00 PM73 °FClear.6 mph61%29.95 "Hg4 mi
1:00 PM72 °FClear.8 mph61%29.98 "Hg4 mi
12:00 PM70 °FClear.7 mph69%30.01 "Hg4 mi
11:00 AM68 °FClear.8 mph69%30.01 "Hg4 mi
10:00 AM64 °FClear.3 mph73%30.01 "Hg3 mi
9:00 AM59 °FFog.6 mph82%29.98 "Hg3 mi
8:00 AM55 °FFog.6 mph88%29.95 "Hg2 mi
7:00 AM54 °FClear.6 mph88%29.95 "Hg3 mi
6:00 AM55 °FClear.7 mph88%29.92 "Hg3 mi
5:00 AM55 °FClear.5 mph88%29.92 "Hg2 mi
4:00 AM61 °FPartly cloudy.5 mph83%29.95 "Hg2 mi
3:00 AM61 °FPartly cloudy.5 mph77%29.95 "Hg3 mi
2:00 AM61 °FClear.2 mph77%29.92 "Hg3 mi
1:00 AM61 °FClear.7 mph77%29.92 "Hg3 mi
12:00 AM59 °FClear.6 mph82%29.89 "Hg3 mi
11:00 PM
Sun, Aug 2
61 °FClear.7 mph77%29.83 "Hg3 mi
10:00 PM66 °FClear.7 mph68%29.83 "Hg3 mi
9:00 PM68 °FClear.7 mph64%29.80 "Hg3 mi
8:00 PM72 °FClear.8 mph57%29.77 "Hg3 mi
7:00 PM79 °FClear.6 mph45%29.74 "Hg3 mi
Weather by CustomWeather, © 2015

See weather overviewHow to use our weather pages